COSMOS 252 DEB *, 3713

Orbit data source: Space-Track

COSMOS 252 DEB *, 3713 is space debris in LEO originally from a launch on Fri, 01 Nov 1968 UTC launched from the Tyuratam Missile And Space Complex (TTMTR). Debris objects in space refer to the collection of defunct objects orbiting the Earth. Examples of debris include non-operational satellites, rocket bodies, and fragments generated from explosions, collisions, or faulty payload assembly.

Loading next visibility...
Identifier
3713, 1968-097AQ
Orbit
LEO
Country
Flag of CISCIS
Related business
Manufacturer
Unknown
Mission
Spacecraft
Bus & Motor
Unknown
Mass
Unknown
Launch date (UTC)
1968-11-01 (58 years ago)
Launch vehicle
Unknown
Launch site
Tyuratam Missile And Space Complex (TTMTR)
Object type
Payload
Rocket body
Debris
Shape & HBR
Unknown shape, 0.1 m
Radar Cross Section
Small (<0.1 m²)

Expand to show TLE details & history
Last TLE update: 16 hours ago

TLE from 16 hours ago
0 COSMOS 252 DEB *
1  3713U 68097AQ  26138.33809125 -.00000303  00000-0 -20001-3 0  9999
2  3713  62.2179 266.7795 0644110   0.2730 359.8504 13.13918685685337
Epoch: 2026-05-18T08:06Z
TLE epoch observation values (Epoch: 2026-05-18T08:06:51.084Z)
Latitude
0.00002°
Longitude
-90.96113°
Altitude
721.019 km
Speed
7.733 km/s
True Right ascension
17h 47m 07s
True Declination
0° 00' 00"
Sunlit
Object was in full shadow at epoch
Visualization orbit readout
Latitude
Unknown
Longitude
Unknown
Altitude
Unknown
Speed
Unknown
Apparent Right ascension
Unknown
Apparent Declination
Unknown
Sunlit
N/A
Visualization observer readout
Local Sidereal Time
08:50:53
Azimuth
Unknown
Elevation
Unknown
Doppler factor
Unknown
Orbital elements
Apogee altitude
1,695.593 km
Perigee altitude
718.458 km
Semi-major axis
7,585.162 km
Eccentricity
0.06441
Inclination
62.2179°
RAAN
266.7795°
Arg. of periapsis
0.273°
True anomaly
359.82945°
Mean anomaly
359.8504°
Eccentric anomaly
359.8401°
Mean motion
3.28546 °/min
Orbital period
109.57 mins
BSTAR
-0.00020001
Loading maneuver chart data...
Computing Atmospheric mass density...

Documentation

Showing up to 5 results
|